Location: Unspecified
(50.1700°N, 6.8600°E)
Time: 02:59:56
(UTC+00:00)

GRACE-FO 1 - Pass Details

Date: 24 January 2019
Orbit: 483 x 505 km, 89.0° (Epoch: 19 February)

Event Time Altitude Azimuth Distance (km) Brightness Sun altitude
Rises 05:09:53 0° 182° (S) 2,544 8.3 -20.2°
Reaches altitude 10° 05:11:57 10° 184° (S) 1,666 7.3 -19.8°
Maximum altitude 05:15:34 75° 270° (W) 509 4.4 -19.2°
Drops below altitude 10° 05:19:13 10° 357° (N) 1,679 7.2 -18.7°
Sets 05:21:19 0° 359° (N) 2,565 8.1 -18.3°
